Regional Weather Roundup
Issued by NWS Kansas City/Pleasant Hill, MO

Home | Current Version | Previous Version | Graphics & Text | Print | Product List | Glossary Off
Versions: 1 2 3 4 5 6 7 8 9 10 11 12 13 14 15 16 17 18 19 20 21 22 23 24 25 26 27

000
ASUS43 KEAX 190310
RWREAX

WEATHER ROUNDUP FOR EASTERN KANSAS AND NORTHWEST MISSOURI
NATIONAL WEATHER SERVICE KANSAS CITY/PLEASANT HILL MO
1000 PM CDT FRI AUG 18 2017

KSZ040-057-103>105-MOZ028-029-037-043-190400-
...KANSAS CITY METROPOLITAN AREA...

CITY           SKY/WX    TMP DP  RH WIND       PRES   REMARKS
K.C. INTL      FAIR      73  67  81 SE7       29.93R
K.C. DOWNTOWN  FAIR      77  69  76 E6        29.92R
LEES SUMMIT    FAIR      74  70  87 NE6       29.94R
OLATHE - IXD   FAIR      75  71  87 S3        29.94R
OLATHE - OJC   FAIR      75  71  87 S3        29.94R
LAWRENCE       FAIR      74  72  93 CALM      29.92R

$$

MOZ001>008-011>017-020>025-030>033-038>040-044>046-053-054-190400-
...NORTHERN AND CENTRAL MISSOURI...

CITY           SKY/WX    TMP DP  RH WIND       PRES   REMARKS
ST. JOSEPH     FAIR      69  67  93 S3        29.92R
MOSBY          FAIR      70  68  94 CALM      29.92S
WARRENSBURG    FAIR      73  64  73 NE5       29.95R
WHITEMAN AFB   TSTM      78  78 100 NE30G40   29.94R FOG
CLINTON        FAIR      73  73 100 MISG      29.94R
SEDALIA        FAIR      77  76  96 SE6       29.95R
WARSAW         NOT AVBL
CHILLICOTHE      N/A     70  70 100 CALM      29.93R
KIRKSVILLE     FAIR      71  67  87 SW3       29.92R

$$

MOZ041-047>049-056>058-063>065-088>090-097-190400-
...EASTERN AND SOUTHERN MISSOURI...

CITY           SKY/WX    TMP DP  RH WIND       PRES   REMARKS
ST. LOUIS INTL FAIR      77  67  71 SW6       29.95S
SPIRIT OF STL  FAIR      71  69  93 CALM      29.94S
COLUMBIA       FAIR      73  70  90 S12       29.92F
JEFFERSON CITY LGT RAIN  73  73 100 SE7       29.92F
ROLLA          FAIR      71  66  84 S3        29.99R
OSAGE BEACH    TSTM      75  72  90 VRB7      29.99R
SPRINGFIELD    FAIR      71  67  87 S9        29.98S
BRANSON        FAIR      66  64  94 CALM      30.00F
JOPLIN         FAIR      73  67  81 S8        29.96S
WEST PLAINS    FAIR      74  68  81 CALM      30.00R

$$

IAZ060-094-KSZ022-034>040-054-083-096-NEZ052-066-093-190400-
...KANSAS...SOUTHEAST NEBRASKA AND IOWA...

CITY           SKY/WX    TMP DP  RH WIND       PRES   REMARKS
TOPEKA         FAIR      76  70  82 CALM      29.92R
MANHATTAN      FAIR      74  70  87 CALM      29.93R
EMPORIA        FAIR      75  69  81 S6        29.94R
CHANUTE        FAIR      75  70  84 S6        29.95R
WICHITA        FAIR      78  67  68 SE6       29.94R
OMAHA          FAIR      74  67  78 CALM      29.92R
LINCOLN        FAIR      75  67  76 S3        29.94R
FALLS CITY     FAIR      76  66  71 S5        29.92R
LAMONI         FAIR      72  67  84 W5        29.92R
DES MOINES     MOCLDY    78  66  66 E8        29.90R

$$





USA.gov is the U.S. government's official web portal to all federal, state and local government web resources and services.